Weather History for KEWR - August, 2013

Change the Weather History Date:

Thursday, August 29, 2013

  Actual Average Record
Temperature  
Mean Temperature 76 °F 74 °F  
Max Temperature 81 °F 82 °F 100 °F (1953)
Min Temperature 71 °F 66 °F 45 °F (1982)
Degree Days  
Heating Degree Days 0 0  
Month to date heating degree days 0 0  
Since 1 June heating degree days 8 17  
Since 1 July heating degree days 0 0  
Cooling Degree Days 11 9  
Month to date cooling degree days 279 318  
Year to date cooling degree days 1143 1016  
Since 1 June cooling degree days 1043 940  
Growing Degree Days 26 (Base 50)    
Moisture  
Dew Point 67 °F    
Average Humidity 79    
Maximum Humidity 100    
Minimum Humidity 58    
Precipitation  
Precipitation T in 0.09 in 1.83 in (2002)
Month to date precipitation 4.57 3.51  
Year to date precipitation 33.30 31.18  
Snow  
Snow 0.00 in 0.00 in 0.00 in (2002)
Month to date snowfall 0.0 0.0  
Since 1 July snowfall 0.0 0.0  
Snow Depth 0.00 in    
Sea Level Pressure  
Sea Level Pressure 29.98 in    
Wind  
Wind Speed 6 mph (ENE)    
Max Wind Speed 13 mph    
Max Gust Speed -    
Visibility 8 miles    
Events Rain    
T = Trace of Precipitation, MM = Missing Value Source: NWS Daily Summary

Daily Weather History Graph

Daily Weather History Graph

Search for Another Location

Airport or City:

Trip Planner

Search our weather history database for the weather conditions in past years. The results will help you decide how hot, cold, wet, or windy it might be!

Date:

Astronomy

Aug. 29, 2013 Rise Set
Actual Time 6:21 AM EDT 7:33 PM EDT
Civil Twilight 5:52 AM EDT 8:01 PM EDT
Nautical Twilight 5:18 AM EDT 8:35 PM EDT
Astronomical Twilight 4:43 AM EDT 9:10 PM EDT
Moon 12:09 AM EDT (8/29) 3:00 PM EDT (8/29)
Length of Visible Light 14h 08m
Length of Day
13h 12m
Last Quarter, 38% of the Moon is Illuminated
Aug 29
Last Quarter
Sep 5
New
Sep 12
First Quarter
Sep 19
Full
Sep 26
Last Quarter

Hourly Weather History & Observations

Time (EDT) Temp. Heat Index Dew Point Humidity Pressure Visibility Wind Dir Wind Speed Gust Speed Precip Events Conditions
12:51 AM 72.0 °F - 71.1 °F 97% 29.89 in 6.0 mi NNE 6.9 mph - N/A   Mostly Cloudy
1:51 AM 72.0 °F - 70.0 °F 93% 29.89 in 6.0 mi NNE 6.9 mph - N/A   Mostly Cloudy
2:51 AM 72.0 °F - 70.0 °F 93% 29.90 in 6.0 mi NNE 8.1 mph - N/A   Overcast
3:51 AM 71.1 °F - 70.0 °F 96% 29.91 in 7.0 mi NNE 6.9 mph - N/A   Overcast
4:51 AM 72.0 °F - 70.0 °F 93% 29.92 in 6.0 mi NNE 5.8 mph - N/A   Mostly Cloudy
5:09 AM 71.6 °F - 69.8 °F 94% 29.92 in 6.0 mi North 5.8 mph - N/A   Mostly Cloudy
5:51 AM 73.0 °F - 69.1 °F 87% 29.94 in 7.0 mi East 5.8 mph - N/A   Overcast
6:39 AM 73.4 °F - 68.0 °F 83% 29.95 in 7.0 mi NE 5.8 mph - N/A   Overcast
6:51 AM 73.0 °F - 68.0 °F 84% 29.95 in 7.0 mi NNE 5.8 mph - N/A   Overcast
7:51 AM 73.0 °F - 68.0 °F 84% 29.97 in 7.0 mi East 4.6 mph - 0.00 in   Overcast
8:51 AM 72.0 °F - 68.0 °F 87% 29.99 in 6.0 mi ESE 6.9 mph - 0.00 in   Light Drizzle
9:51 AM 72.0 °F - 68.0 °F 87% 30.00 in 5.0 mi Variable 6.9 mph - 0.00 in Rain Light Rain
10:18 AM 71.6 °F - 69.8 °F 94% 30.00 in 5.0 mi ENE 5.8 mph - 0.00 in   Overcast
10:51 AM 73.9 °F - 69.1 °F 85% 30.00 in 6.0 mi NE 3.5 mph - 0.00 in   Haze
11:38 AM 77.0 °F - 66.2 °F 69% 30.01 in 10.0 mi East 6.9 mph - N/A   Mostly Cloudy
11:51 AM 78.1 °F - 66.9 °F 68% 30.01 in 10.0 mi NE 6.9 mph - N/A   Mostly Cloudy
12:51 PM 79.0 °F - 66.0 °F 64% 30.00 in 10.0 mi NE 9.2 mph - N/A   Mostly Cloudy
1:51 PM 79.0 °F - 64.9 °F 62% 30.00 in 10.0 mi NE 8.1 mph - N/A   Mostly Cloudy
2:51 PM 79.0 °F - 64.9 °F 62% 29.99 in 10.0 mi ENE 6.9 mph - N/A   Mostly Cloudy
3:51 PM 80.1 °F 81.9 °F 64.9 °F 60% 29.99 in 10.0 mi East 6.9 mph - N/A   Mostly Cloudy
4:51 PM 79.0 °F - 64.9 °F 62% 29.99 in 10.0 mi ESE 8.1 mph - N/A   Mostly Cloudy
5:51 PM 75.9 °F - 64.9 °F 69% 30.00 in 10.0 mi SSE 5.8 mph - N/A   Mostly Cloudy
6:51 PM 75.0 °F - 64.9 °F 71% 30.01 in 10.0 mi SSE 5.8 mph - N/A   Mostly Cloudy
7:51 PM 73.0 °F - 64.9 °F 76% 30.02 in 10.0 mi South 4.6 mph - N/A   Mostly Cloudy
8:51 PM 73.0 °F - 64.9 °F 76% 30.03 in 10.0 mi SE 4.6 mph - N/A   Mostly Cloudy
9:51 PM 72.0 °F - 66.0 °F 81% 30.03 in 10.0 mi South 5.8 mph - N/A   Mostly Cloudy
10:51 PM 71.1 °F - 66.9 °F 87% 30.03 in 10.0 mi SSE 6.9 mph - N/A   Mostly Cloudy
11:11 PM 71.6 °F - 66.2 °F 83% 30.03 in 10.0 mi SSE 6.9 mph - N/A   Mostly Cloudy
11:51 PM 71.1 °F - 66.0 °F 84% 30.04 in 10.0 mi SSE 8.1 mph - N/A   Mostly Cloudy